Regional Weather Roundup
Issued by NWS

Home | Current Version | Previous Version | Text Only | Print | Product List | Glossary On
Versions: 1 2 3 4 5 6 7 8 9 10 11 12 13 14 15 16 17 18 19 20 21 22 23 24 25 26 27 28 29 30 31 32 33 34 35 36 37 38 39 40 41 42 43 44 45 46 47 48 49 50
000
ASUS44 KBMX 292210
RWRAL

ALABAMA REGIONAL WEATHER ROUNDUP
NATIONAL WEATHER SERVICE BIRMINGHAM AL
500 PM CDT MON AUG 29 2016

NOTE: "FAIR" INDICATES FEW OR NO CLOUDS BELOW 12,000 FEET
WITH NO SIGNIFICANT WEATHER AND/OR OBSTRUCTIONS TO VISIBILITY.

THE REMARK "TC" DENOTES TEMPERATURE IN DEGREES CELSIUS.

ALZ001>011-014-016>018-020-292300-
NORTH ALABAMA

CITY           SKY/WX    TMP DP  RH WIND       PRES   REMARKS
MUSCLE SHOALS  MOSUNNY   92  68  45 E7        30.05F HX  96
HUNTSVILLE     MOSUNNY   92  68  45 NE10      30.05F HX  96
DECATUR        SUNNY     92  70  48 NE8       30.05F HX  97
HALEYVILLE     NOT AVBL
GADSDEN        SUNNY     92  68  45 NE10      30.02F HX  96
$$

ALZ012-013-022-023-030>036-040>044-292300-
WEST CENTRAL ALABAMA

CITY           SKY/WX    TMP DP  RH WIND       PRES   REMARKS
TUSCALOOSA     SUNNY     94  67  41 NE8       29.98F HX  97
$$

ALZ015-024>027-033>036-040>044-292300-
CENTRAL ALABAMA

CITY           SKY/WX    TMP DP  RH WIND       PRES   REMARKS
BIRMINGHAM     MOSUNNY   94  66  39 NE14      30.03F HX  97
MONTGOMERY     MOSUNNY   95  65  37 NE8       29.97F HX  97
SHELBY CO ARPT MOSUNNY   92  64  39 E3        30.00F HX  93
MAXWELL AFB    SUNNY     95  67  40 E8        29.96F HX  98
GREENVILLE     FAIR      94  68  42 E9        29.97F HX  98
$$

ALZ019-021-028-029-037-038-045>048-292300-
EAST CENTRAL ALABAMA

CITY           SKY/WX    TMP DP  RH WIND       PRES   REMARKS
ANNISTON       SUNNY     92  64  39 E13       30.02F HX  93
ALEXANDER CITY SUNNY     95  78  58 E3        30.01F HX 111
AUBURN         PTSUNNY   88  72  58 NE12      30.04R HX  94
$$

ALZ051>064-292300-
SOUTHWEST ALABAMA

CITY           SKY/WX    TMP DP  RH WIND       PRES   REMARKS
MOBILE         MOSUNNY   91  70  49 E10       29.95F HX  96
BROOKLEY FIELD MOSUNNY   92  72  51 NE12      29.94F HX  99
EVERGREEN      MOSUNNY   91  72  53 NE6       29.96F HX  98
$$

ALZ049-050-065>069-292300-
SOUTHEAST ALABAMA

CITY           SKY/WX    TMP DP  RH WIND       PRES   REMARKS
DOTHAN         MOSUNNY   92  71  50 NE7       29.99F HX  98
OZARK          MOSUNNY   94  69  44 NE8       29.95F HX  98
TROY           PTSUNNY   89  71  55 N7        29.98F HX  95
EUFAULA        FAIR      87  72  60 N5        29.98S HX  93
$$



USA.gov is the U.S. government's official web portal to all federal, state and local government web resources and services.